Regional Weather Roundup
Issued by NWS Goodland, KS

Home | Current Version | Previous Version | Graphics & Text | Print | Product List | Glossary On
Versions: 1 2 3 4 5 6 7 8 9 10 11 12 13 14 15 16 17 18 19 20 21 22 23 24 25 26 27 28 29 30 31 32 33 34 35 36 37 38 39 40 41 42 43 44 45 46 47 48 49 50
000
ASUS43 KGLD 240959
RWRGLD

GOODLAND FORECAST AREA HOURLY WEATHER ROUNDUP
NATIONAL WEATHER SERVICE GOODLAND KS
400 AM MDT FRI MAR 24 2017

...OFFICIAL OBSERVATIONS...

CITY           SKY/WX    TMP DP  RH WIND       PRES   REMARKS
GOODLAND KS    CLOUDY    49  48  97 NE25G36   29.61S
HILL CITY KS   CLOUDY    54  54 100 E9        29.64R
IMPERIAL NEB   LGT RAIN  49  46  90 NE30G37   29.74R FOG
MCCOOK NEB     CLOUDY    52  51  97 NE21G29   29.68
AKRON CO       LGT RAIN  40  38  93 N32G45    29.75S
BURLINGTON CO  CLOUDY    48  47  96 NE33G46   29.59F
LIMON CO       LGT SNOW  32  32 100 N41G58    29.68R VSB 1   WCI  16
$$

...UNOFFICIAL OBSERVATIONS...

CITY           SKY/WX    TMP DP  RH WIND       PRES   REMARKS
LENORA KS        N/A     54  32  43 N6          N/A
NORTON KS      MOCLDY    54  48  82 NE22      29.63S
SHARON SPRINGS   N/A     46  39  78 CALM        N/A
TRENTON NEB      N/A     49  32  52 N16         N/A
YUMA CO        CLOUDY    41  41 100 N26G37    29.73R
$$




USA.gov is the U.S. government's official web portal to all federal, state and local government web resources and services.